Date String (YYYY-MM-DD hh:mm:ss) UTC,Instrument flags,Ambient pressure (hPa),Sample flow (lpm),Bypass flow (lpm),Sample temperature (°C),Ambient temperature (°C),ASC tube jacket temperature (°C),LED temperature (°C),Box temperature (°C),Sample RH (%),Span deviation,Mass concentration (μg/m³),Mass concentration (μg/m³),Mass concentration (μg/m³)
DateTimeUTC,F1_M11,P_M11,Q1_M11,Q2_M11,T1_M11,T2_M11,T3_M11,T4_M11,T5_M11,U1_M11,ZSPAN_M11,X0_M11,X2_M11,X1_M11
2021-11-17 13:00:00,,0829.0,5.01,0.00,23.8,22.8,00.0,32.8,25.5,13.2,0000.0,0010.29,0003.45,0000.93
2021-11-17 13:01:00,,0829.1,5.00,0.00,23.7,22.8,00.0,32.8,25.5,13.2,0000.0,0009.86,0003.54,0000.98
2021-11-17 13:02:00,,0829.1,5.00,0.00,23.7,22.8,00.0,32.8,25.5,13.2,0000.0,0009.97,0003.59,0001.01
2021-11-17 13:03:00,,0829.1,4.99,0.00,23.7,22.8,00.0,32.8,25.5,13.3,0000.0,0009.95,0003.62,0001.04
2021-11-17 13:04:00,,0829.3,5.00,0.00,23.7,22.8,00.0,32.8,25.5,13.3,0000.0,0010.29,0003.67,0001.08
2021-11-17 13:05:00,,0829.3,5.00,0.00,23.7,22.8,00.0,32.8,25.5,13.3,0000.0,0010.33,0003.68,0001.13
2021-11-17 13:06:00,,0829.3,5.01,0.00,23.7,22.8,00.0,32.8,25.5,13.3,0000.0,0010.39,0003.66,0001.16
2021-11-17 13:07:00,,0829.3,4.99,0.00,23.7,22.8,00.0,32.8,25.5,13.3,0000.0,0010.53,0003.61,0001.21
2021-11-17 13:08:00,,0829.2,5.00,0.00,23.7,22.8,00.0,32.7,25.5,13.4,0000.0,0011.10,0003.64,0001.25
2021-11-17 13:09:00,,0829.3,5.00,0.00,23.7,22.8,00.0,32.7,25.5,13.4,0000.0,0011.09,0003.61,0001.29
2021-11-17 13:10:00,,0829.3,5.00,0.00,23.7,22.8,00.0,32.7,25.5,13.4,0000.0,0011.19,0003.59,0001.34
2021-11-17 13:11:00,,0829.3,4.99,0.00,23.7,22.7,00.0,32.7,25.5,13.4,0000.0,0011.21,0003.56,0001.35
2021-11-17 13:12:00,,0829.2,5.01,0.00,23.6,22.7,00.0,32.7,25.4,13.5,0000.0,0010.90,0003.48,0001.33
2021-11-17 13:13:00,,0829.3,5.01,0.00,23.6,22.6,00.0,32.7,25.4,13.5,0000.0,0010.95,0003.43,0001.33
2021-11-17 13:14:00,,0829.3,5.00,0.00,23.6,22.5,00.0,32.7,25.3,13.6,0000.0,0010.60,0003.39,0001.33
2021-11-17 13:15:00,,0829.5,5.00,0.00,23.5,22.4,00.0,32.7,25.2,13.6,0000.0,0010.27,0003.38,0001.34
2021-11-17 13:16:00,,0829.5,5.00,0.00,23.5,22.5,00.0,32.6,25.2,13.6,0000.0,0010.58,0003.41,0001.34
2021-11-17 13:17:00,,0829.5,5.00,0.00,23.5,22.5,00.0,32.6,25.2,13.6,0000.0,0010.54,0003.43,0001.35
2021-11-17 13:18:00,,0829.5,5.00,0.00,23.5,22.5,00.0,32.6,25.2,13.7,0000.0,0010.54,0003.46,0001.33
2021-11-17 13:19:00,,0829.5,5.01,0.00,23.5,22.5,00.0,32.6,25.2,13.7,0000.0,0010.36,0003.44,0001.32
2021-11-17 13:20:00,,0829.5,4.99,0.00,23.4,22.4,00.0,32.6,25.1,13.7,0000.0,0010.63,0003.46,0001.32
2021-11-17 13:21:00,,0829.5,5.01,0.00,23.4,22.3,00.0,32.5,25.1,13.8,0000.0,0010.61,0003.49,0001.32
2021-11-17 13:22:00,,0829.5,4.99,0.00,23.3,22.1,00.0,32.5,25.0,13.8,0000.0,0010.52,0003.51,0001.31
2021-11-17 13:23:00,,0829.5,5.00,0.00,23.3,22.0,00.0,32.5,24.9,13.9,0000.0,0010.53,0003.54,0001.30
2021-11-17 13:24:00,,0829.5,5.00,0.00,23.2,21.9,00.0,32.4,24.9,13.9,0000.0,0010.42,0003.55,0001.28
2021-11-17 13:25:00,,0829.6,5.00,0.00,23.1,21.7,00.0,32.4,24.8,14.0,0000.0,0011.13,0003.62,0001.25
2021-11-17 13:26:00,,0829.6,4.99,0.00,23.1,21.7,00.0,32.4,24.7,14.0,0000.0,0011.82,0003.64,0001.22
2021-11-17 13:27:00,,0829.9,5.00,0.00,23.0,21.6,00.0,32.3,24.7,14.1,0000.0,0011.38,0003.62,0001.19
2021-11-17 13:28:00,,0829.8,5.00,0.00,23.0,21.5,00.0,32.3,24.6,14.1,0000.0,0012.14,0003.64,0001.19
2021-11-17 13:29:00,,0829.8,4.99,0.00,22.9,21.6,00.0,32.2,24.6,14.1,0000.0,0012.66,0003.67,0001.19
2021-11-17 13:30:00,,0830.0,4.99,0.00,22.9,21.7,00.0,32.2,24.6,14.2,0000.0,0012.43,0003.66,0001.20
2021-11-17 13:31:00,,0829.8,5.01,0.00,22.9,21.8,00.0,32.2,24.6,14.2,0000.0,0012.73,0003.66,0001.18
2021-11-17 13:32:00,,0830.0,5.00,0.00,22.9,21.8,00.0,32.2,24.6,14.2,0000.0,0012.75,0003.64,0001.16
2021-11-17 13:33:00,,0829.9,5.00,0.00,22.9,21.8,00.0,32.1,24.6,14.2,0000.0,0013.72,0003.61,0001.15
2021-11-17 13:34:00,,0829.6,5.01,0.00,22.9,21.8,00.0,32.1,24.6,14.2,0000.0,0013.89,0003.60,0001.16
2021-11-17 13:35:00,,0829.6,4.99,0.00,22.8,21.7,00.0,32.1,24.6,14.2,0000.0,0013.70,0003.61,0001.16
2021-11-17 13:36:00,,0829.8,5.01,0.00,22.8,21.7,00.0,32.0,24.5,14.2,0000.0,0013.51,0003.55,0001.16
2021-11-17 13:37:00,,0829.8,4.99,0.00,22.8,21.8,00.0,32.0,24.5,14.2,0000.0,0012.73,0003.56,0001.18
2021-11-17 13:38:00,,0829.8,5.01,0.00,22.8,21.7,00.0,32.0,24.5,14.2,0000.0,0012.76,0003.57,0001.19
2021-11-17 13:39:00,,0829.9,4.99,0.00,22.8,21.7,00.0,32.0,24.5,14.3,0000.0,0012.80,0003.56,0001.19
2021-11-17 13:40:00,,0829.8,5.00,0.00,22.8,21.7,00.0,32.0,24.5,14.3,0000.0,0012.46,0003.50,0001.18
2021-11-17 13:41:00,,0829.9,5.01,0.00,22.7,21.7,00.0,31.9,24.5,14.3,0000.0,0012.81,0003.56,0001.18
2021-11-17 13:42:00,,0830.0,5.00,0.00,22.7,21.7,00.0,31.9,24.5,14.3,0000.0,0012.47,0003.59,0001.19
2021-11-17 13:43:00,,0830.1,5.00,0.00,22.8,21.8,00.0,31.9,24.5,14.3,0000.0,0012.57,0003.63,0001.19
2021-11-17 13:44:00,,0830.1,5.01,0.00,22.7,21.8,00.0,31.9,24.5,14.3,0000.0,0011.66,0003.66,0001.22
2021-11-17 13:45:00,,0830.1,4.99,0.00,22.7,21.9,00.0,31.9,24.5,14.3,0000.0,0011.71,0003.63,0001.23
2021-11-17 13:46:00,,0830.1,5.01,0.00,22.7,21.9,00.0,31.9,24.5,14.3,0000.0,0011.90,0003.66,0001.25
2021-11-17 13:47:00,,0830.1,5.00,0.00,22.7,21.9,00.0,31.8,24.5,14.3,0000.0,0011.80,0003.68,0001.29
2021-11-17 13:48:00,,0830.2,4.99,0.00,22.7,21.9,00.0,31.8,24.5,14.3,0000.0,0011.75,0003.59,0001.29
2021-11-17 13:49:00,,0830.2,4.99,0.00,22.7,21.9,00.0,31.8,24.5,14.3,0000.0,0011.51,0003.53,0001.31
2021-11-17 13:50:00,,0830.3,5.01,0.00,22.7,21.9,00.0,31.8,24.5,14.3,0000.0,0010.53,0003.47,0001.33
2021-11-17 13:51:00,,0830.2,5.00,0.00,22.7,22.0,00.0,31.8,24.5,14.2,0000.0,0010.25,0003.54,0001.37
2021-11-17 13:52:00,,0830.2,4.99,0.00,22.8,22.0,00.0,31.8,24.5,14.2,0000.0,0009.83,0003.53,0001.38
2021-11-17 13:53:00,,0830.1,5.00,0.00,22.8,22.0,00.0,31.8,24.6,14.2,0000.0,0009.80,0003.51,0001.40
2021-11-17 13:54:00,,0830.1,4.99,0.00,22.8,22.0,00.0,31.8,24.6,14.2,0000.0,0010.11,0003.49,0001.43
2021-11-17 13:55:00,,0830.2,5.01,0.00,22.8,22.0,00.0,31.8,24.6,14.2,0000.0,0010.12,0003.48,0001.44
2021-11-17 13:56:00,,0830.2,5.01,0.00,22.8,22.0,00.0,31.8,24.6,14.1,0000.0,0010.39,0003.49,0001.47
2021-11-17 13:57:00,,0830.2,4.98,0.00,22.8,22.0,00.0,31.8,24.6,14.1,0000.0,0010.22,0003.47,0001.50
2021-11-17 13:58:00,,0830.2,5.00,0.00,22.8,22.0,00.0,31.8,24.6,14.1,0000.0,0010.81,0003.55,0001.50
2021-11-17 13:59:00,,0830.3,4.99,0.00,22.8,22.0,00.0,31.8,24.6,14.1,0000.0,0011.03,0003.64,0001.54
